Location: Unspecified
(44.2972°N, 0.0000°E)
Time: 03:45:57
(UTC+00:00)

Cosmos 2322 Rocket - Visible Passes

Search period start: 04 April 2026 00:00
Search period end: 14 April 2026 00:00
Orbit: 833 x 848 km, 71.0° (Epoch: 29 March)

Date Brightness Start Highest point End Pass type
(mag) Time Alt. Az. Time Alt. Az. Time Alt. Az.
4 Apr 5.3 03:58:35 10° NNE 04:00:06 11° NE 04:01:39 10° NE visible
4 Apr 2.0 20:32:23 10° SSW 20:37:58 78° ESE 20:43:37 10° NNE visible
4 Apr 4.5 22:18:39 10° W 22:22:40 20° NW 22:26:42 10° N visible
5 Apr 5.4 03:43:32 10° NNE 03:44:38 10° NE 03:45:43 10° NE visible
5 Apr 2.0 20:16:59 10° SSW 20:22:35 74° ESE 20:28:11 10° NNE visible
5 Apr 4.5 22:03:04 10° W 22:07:12 21° NW 22:11:21 10° N visible
6 Apr 5.6 03:28:58 10° NE 03:29:09 10° NE 03:29:19 10° NE visible
6 Apr 2.1 20:01:37 10° SSW 20:07:11 70° ESE 20:12:46 10° NNE visible
6 Apr 4.5 21:47:30 10° W 21:51:45 22° NW 21:56:01 10° N visible
7 Apr 3.6 04:53:52 10° NNW 04:59:15 44° ENE 05:04:37 10° SE visible
7 Apr 2.1 19:46:14 10° SSW 19:51:47 66° ESE 19:57:21 10° NNE visible
7 Apr 4.5 21:31:57 10° W 21:36:18 23° NW 21:40:40 10° N visible
8 Apr 3.7 04:38:29 10° NNW 04:43:49 42° ENE 04:49:08 10° SE visible
8 Apr 2.2 19:30:53 10° S 19:36:23 62° ESE 19:41:56 10° NNE visible
8 Apr 4.5 21:16:24 10° WSW 21:20:51 24° NW 21:25:19 10° N visible
9 Apr 3.7 04:23:07 10° NNW 04:28:24 40° ENE 04:33:40 10° SE visible
9 Apr 2.2 19:15:31 10° S 19:21:00 59° ESE 19:26:30 10° NNE visible
9 Apr 4.4 21:00:52 10° WSW 21:05:24 25° NW 21:09:58 10° N visible
10 Apr 3.8 04:07:44 10° NNW 04:12:58 38° NE 04:18:11 10° SE visible
10 Apr 2.3 19:00:09 10° S 19:05:36 55° ESE 19:11:05 10° NNE visible
10 Apr 4.4 20:45:20 10° WSW 20:49:58 26° NW 20:54:37 10° N visible
11 Apr 3.9 03:52:22 10° N 03:57:32 36° NE 04:02:41 10° ESE visible
11 Apr 4.4 20:29:48 10° WSW 20:34:31 27° NW 20:39:16 10° N visible
12 Apr 3.9 03:36:59 10° N 03:42:06 34° NE 03:47:12 10° ESE visible
12 Apr 4.3 20:14:17 10° WSW 20:19:05 28° NW 20:23:54 10° N visible
13 Apr 4.0 03:21:37 10° N 03:26:41 33° NE 03:31:42 10° ESE visible
13 Apr 4.3 19:58:46 10° WSW 20:03:38 30° NW 20:08:32 10° N visible
